Regional Weather Roundup
Issued by NWS

Home | Current Version | Previous Version | Text Only | Print | Product List | Glossary Off
Versions: 1 2 3 4 5 6 7 8 9 10 11 12 13 14 15 16 17 18 19 20 21 22 23 24 25 26 27

000
ASUS45 KCYS 251810
RWRWY

WYOMING REGIONAL WEATHER ROUNDUP
NATIONAL WEATHER SERVICE CHEYENNE WY
1200 PM MDT SAT OCT 25 2014

NOTE:  "FAIR" INDICATES FEW OR NO CLOUDS BELOW 12,000 FEET
WITH NO SIGNIFICANT WEATHER AND/OR OBSTRUCTIONS TO VISIBILITY.

WYZ001-251900-
YELLOWSTONE NATIONAL PARK

CITY           SKY/WX    TMP DP  RH WIND       PRES   REMARKS
LK YELLOWSTONE   N/A     57  26  30 VRB3      30.18
6HR MIN TEMP:  26; 6HR MAX TEMP:  57;

W YELLOWSTONE  NOT AVBL

$$
WYZ002>013-054>058-071-098>099-251900-
NORTHERN WYOMING

CITY           SKY/WX    TMP DP  RH WIND       PRES   REMARKS
JACKSON        SUNNY     50  28  43 CALM      30.15F
CODY           SUNNY     68  27  21 CALM      30.01
GREYBULL       SUNNY     56  31  38 E3        30.01F
6HR MIN TEMP:  31; 6HR MAX TEMP:  56;

WORLAND        SUNNY     65  32  29 NW3       30.01F
6HR MIN TEMP:  28; 6HR MAX TEMP:  65;

SHERIDAN       SUNNY     57  34  41 N6        30.00F
6HR MIN TEMP:  26; 6HR MAX TEMP:  58;

BUFFALO        SUNNY     74  21  13 SE13      30.04F
6HR MIN TEMP:  35; 6HR MAX TEMP:  74;

GILLETTE       SUNNY     63  35  35 S17       30.08F
6HR MIN TEMP:  37; 6HR MAX TEMP:  64;

HULETT         FAIR      66  32  28 S14       30.09
NEWCASTLE      FAIR      61  30  31 SE9       30.14

$$
WYZ014>020-022>026-101>103-251900-
CENTRAL WYOMING

CITY           SKY/WX    TMP DP  RH WIND       PRES   REMARKS
BIG PINEY      SUNNY     53  23  31 S5        30.23F
6HR MIN TEMP:  21; 6HR MAX TEMP:  53; 6HR PCP: TRACE;

PINEDALE       CLEAR     61  27  27 SE9       30.23
DUBOIS         FAIR      59  19  21 S5        30.15F
LANDER         SUNNY     59  21  23 CALM      30.11F
6HR MIN TEMP:  40; 6HR MAX TEMP:  59;

RIVERTON       SUNNY     58  27  30 NE5       30.12F
6HR MIN TEMP:  34; 6HR MAX TEMP:  59;

CASPER         SUNNY     71  27  19 S17G28    30.13F
6HR MIN TEMP:  40; 6HR MAX TEMP:  71;

DOUGLAS        SUNNY     73  29  19 S6        30.12F
6HR MIN TEMP:  30; 6HR MAX TEMP:  73;


$$
WYZ021-027>030-104>119-251900-
SOUTHERN WYOMING

CITY           SKY/WX    TMP DP  RH WIND       PRES   REMARKS
EVANSTON       SUNNY     65  25  22 SW13      30.19F
6HR MIN TEMP:  46; 6HR MAX TEMP:  66;

KEMMERER       CLEAR     61  23  23 S3        30.22F
FORT BRIDGER   FAIR      58  26  29 SE6       30.24F
ROCK SPRINGS   SUNNY     58  29  33 N3        30.22F
6HR MIN TEMP:  35; 6HR MAX TEMP:  58;

RAWLINS        SUNNY     69  26  20 SW15G24   30.24F
6HR MIN TEMP:  32; 6HR MAX TEMP:  69;

SARATOGA       FAIR      68  23  18 SW13      30.26F
LARAMIE        SUNNY     68  21  16 W17       30.27F
6HR MIN TEMP:  32; 6HR MAX TEMP:  68;

CHEYENNE       SUNNY     71  19  14 S14G21    30.23F
6HR MIN TEMP:  38; 6HR MAX TEMP:  73;

TORRINGTON     SUNNY     65  34  31 VRB3      30.12F
6HR MIN TEMP:  35; 6HR MAX TEMP:  66;

PINE BLUFFS    FAIR      75  27  16 CALM      30.18F

$$



USA.gov is the U.S. government's official web portal to all federal, state and local government web resources and services.